When you browse on this site, cookies collect data to enhance your experience and personalize the content and advertising you see.
Visit our Privacy Policy to learn more. By continuing to use the site, you agree to this use of cookies and data.
  • In Österreich
  • Länderverzeichnis
  • Für 7 Tage
  • Wassertemperatur
  • Satellitenkarten
  • Wetterkarte
  • News
  • Widgets
  • user-avatar
    Anmelden

    Stündliche Wetter Sydney

    Heute, 19 März, Dienstag

    Zeit Temperatur Niederschläge Wind Luftdruck Luftfeuchtigkeit
    00:00 +21°C° 0.2 mm 1 m/S 758 mmHg 88%
    01:00 +20°C° 0.2 mm 2 m/S 758 mmHg 90%
    02:00 +20°C° 0 mm 2 m/S 758 mmHg 90%
    03:00 +20°C° 0 mm 2 m/S 758 mmHg 91%
    04:00 +20°C° 0 mm 1 m/S 758 mmHg 93%
    05:00 +21°C° 0.2 mm 1 m/S 758 mmHg 92%
    06:00 +20°C° 0.2 mm 2 m/S 758 mmHg 91%
    07:00 +20°C° 0.2 mm 3 m/S 758 mmHg 91%
    08:00 +22°C° 0.2 mm 3 m/S 758 mmHg 85%
    09:00 +24°C° 0.2 mm 3 m/S 758 mmHg 79%
    10:00 +25°C° 0.2 mm 4 m/S 758 mmHg 74%
    11:00 +26°C° 0.4 mm 4 m/S 758 mmHg 71%
    12:00 +27°C° 0.4 mm 4 m/S 758 mmHg 69%
    13:00 +27°C° 0.4 mm 4 m/S 758 mmHg 67%
    14:00 +27°C° 0.2 mm 4 m/S 758 mmHg 67%
    15:00 +27°C° 0.2 mm 4 m/S 757 mmHg 67%
    16:00 +27°C° 0.2 mm 4 m/S 757 mmHg 68%
    17:00 +26°C° 0.2 mm 3 m/S 758 mmHg 72%
    18:00 +25°C° 0.2 mm 3 m/S 758 mmHg 76%
    19:00 +24°C° 0.2 mm 2 m/S 758 mmHg 81%
    20:00 +22°C° 0.3 mm 3 m/S 759 mmHg 83%
    21:00 +22°C° 0.3 mm 3 m/S 759 mmHg 85%
    22:00 +22°C° 0.3 mm 3 m/S 759 mmHg 88%
    23:00 +21°C° 0.2 mm 3 m/S 759 mmHg 89%

    Morgen, 20 März, Mittwoch

    Zeit Temperatur Niederschläge Wind Luftdruck Luftfeuchtigkeit
    00:00 +21°C° 0.2 mm 3 m/S 759 mmHg 90%
    01:00 +21°C° 0.2 mm 3 m/S 758 mmHg 91%
    02:00 +21°C° 0 mm 4 m/S 758 mmHg 91%
    03:00 +21°C° 0 mm 4 m/S 758 mmHg 91%
    04:00 +21°C° 0 mm 4 m/S 758 mmHg 91%
    05:00 +21°C° 0.1 mm 4 m/S 758 mmHg 90%
    06:00 +21°C° 0.1 mm 4 m/S 759 mmHg 89%
    07:00 +21°C° 0.1 mm 4 m/S 759 mmHg 89%
    08:00 +22°C° 0.2 mm 4 m/S 759 mmHg 84%
    09:00 +23°C° 0.2 mm 5 m/S 759 mmHg 79%
    10:00 +25°C° 0.2 mm 5 m/S 760 mmHg 74%
    11:00 +26°C° 0.8 mm 5 m/S 759 mmHg 73%
    12:00 +26°C° 0.8 mm 5 m/S 759 mmHg 71%
    13:00 +27°C° 0.8 mm 6 m/S 759 mmHg 70%
    14:00 +27°C° 0.2 mm 6 m/S 759 mmHg 70%
    15:00 +27°C° 0.2 mm 5 m/S 758 mmHg 71%
    16:00 +26°C° 0.2 mm 5 m/S 758 mmHg 71%
    17:00 +26°C° 0 mm 5 m/S 759 mmHg 75%
    18:00 +25°C° 0 mm 5 m/S 759 mmHg 79%
    19:00 +23°C° 0 mm 4 m/S 760 mmHg 83%
    20:00 +23°C° 0.2 mm 4 m/S 760 mmHg 84%
    21:00 +22°C° 0.2 mm 4 m/S 761 mmHg 86%
    22:00 +22°C° 0.2 mm 3 m/S 761 mmHg 88%
    23:00 +22°C° 0.3 mm 3 m/S 761 mmHg 88%

    übermorgen, 21 März, Donnerstag

    Zeit Temperatur Niederschläge Wind Luftdruck Luftfeuchtigkeit
    00:00 +22°C° 0.3 mm 3 m/S 761 mmHg 89%
    01:00 +21°C° 0.3 mm 3 m/S 760 mmHg 90%
    02:00 +21°C° 0.1 mm 3 m/S 760 mmHg 90%
    03:00 +21°C° 0.1 mm 4 m/S 760 mmHg 90%
    04:00 +21°C° 0.1 mm 4 m/S 760 mmHg 90%
    05:00 +21°C° 0 mm 4 m/S 760 mmHg 89%
    06:00 +21°C° 0 mm 4 m/S 761 mmHg 89%
    07:00 +21°C° 0 mm 4 m/S 761 mmHg 88%
    08:00 +22°C° 0.1 mm 4 m/S 761 mmHg 82%
    09:00 +25°C° 0.1 mm 4 m/S 762 mmHg 77%
    10:00 +26°C° 0.1 mm 4 m/S 762 mmHg 71%
    11:00 +27°C° 0.1 mm 4 m/S 762 mmHg 68%
    12:00 +27°C° 0.1 mm 4 m/S 761 mmHg 64%
    13:00 +28°C° 0.1 mm 4 m/S 761 mmHg 61%
    14:00 +28°C° 0 mm 4 m/S 761 mmHg 62%
    15:00 +27°C° 0 mm 4 m/S 760 mmHg 63%
    16:00 +27°C° 0 mm 4 m/S 760 mmHg 64%
    17:00 +26°C° 0 mm 4 m/S 761 mmHg 69%
    18:00 +25°C° 0 mm 3 m/S 761 mmHg 74%
    19:00 +24°C° 0 mm 3 m/S 762 mmHg 79%
    20:00 +24°C° 0 mm 3 m/S 762 mmHg 80%
    21:00 +24°C° 0 mm 2 m/S 762 mmHg 82%
    22:00 +23°C° 0 mm 2 m/S 763 mmHg 83%
    23:00 +23°C° 0 mm 2 m/S 763 mmHg 84%

    22 März, Freitag

    Zeit Temperatur Niederschläge Wind Luftdruck Luftfeuchtigkeit
    00:00 +23°C° 0 mm 1 m/S 762 mmHg 84%
    01:00 +23°C° 0 mm 1 m/S 762 mmHg 85%
    02:00 +23°C° 0 mm 1 m/S 762 mmHg 85%
    03:00 +23°C° 0 mm 1 m/S 762 mmHg 84%
    04:00 +23°C° 0 mm 1 m/S 762 mmHg 84%
    05:00 +23°C° 0 mm 2 m/S 762 mmHg 84%
    06:00 +23°C° 0 mm 2 m/S 762 mmHg 84%
    07:00 +23°C° 0 mm 2 m/S 763 mmHg 85%
    08:00 +24°C° 0 mm 2 m/S 763 mmHg 78%
    09:00 +25°C° 0 mm 2 m/S 763 mmHg 72%
    10:00 +26°C° 0 mm 2 m/S 763 mmHg 66%
    11:00 +27°C° 0 mm 2 m/S 762 mmHg 64%
    12:00 +27°C° 0 mm 2 m/S 762 mmHg 62%
    13:00 +28°C° 0 mm 3 m/S 761 mmHg 60%
    14:00 +28°C° 0 mm 3 m/S 761 mmHg 61%
    15:00 +27°C° 0 mm 3 m/S 761 mmHg 62%
    16:00 +27°C° 0 mm 3 m/S 760 mmHg 63%
    17:00 +26°C° 0 mm 3 m/S 761 mmHg 67%
    18:00 +25°C° 0 mm 2 m/S 761 mmHg 72%
    19:00 +24°C° 0 mm 2 m/S 762 mmHg 76%
    20:00 +24°C° 0 mm 2 m/S 762 mmHg 78%
    21:00 +24°C° 0 mm 1 m/S 762 mmHg 80%
    22:00 +23°C° 0 mm 1 m/S 762 mmHg 82%
    23:00 +23°C° 0 mm 1 m/S 761 mmHg 84%

    23 März, Samstag

    Zeit Temperatur Niederschläge Wind Luftdruck Luftfeuchtigkeit
    00:00 +23°C° 0 mm 1 m/S 761 mmHg 86%
    01:00 +22°C° 0 mm 1 m/S 761 mmHg 88%
    02:00 +22°C° 0 mm 1 m/S 760 mmHg 89%
    03:00 +22°C° 0 mm 1 m/S 760 mmHg 90%
    04:00 +22°C° 0 mm 1 m/S 760 mmHg 91%
    05:00 +22°C° 0 mm 1 m/S 760 mmHg 90%
    06:00 +22°C° 0 mm 1 m/S 760 mmHg 90%
    07:00 +22°C° 0 mm 1 m/S 760 mmHg 89%
    08:00 +23°C° 0 mm 2 m/S 760 mmHg 83%
    09:00 +25°C° 0 mm 2 m/S 760 mmHg 77%
    10:00 +26°C° 0 mm 2 m/S 760 mmHg 72%
    11:00 +28°C° 0 mm 3 m/S 760 mmHg 66%
    12:00 +29°C° 0 mm 3 m/S 759 mmHg 59%
    13:00 +30°C° 0 mm 3 m/S 759 mmHg 53%
    14:00 +30°C° 0 mm 4 m/S 758 mmHg 57%
    15:00 +29°C° 0 mm 4 m/S 758 mmHg 61%
    16:00 +29°C° 0 mm 5 m/S 757 mmHg 65%
    17:00 +28°C° 0 mm 5 m/S 758 mmHg 71%
    18:00 +27°C° 0 mm 5 m/S 758 mmHg 76%
    19:00 +25°C° 0 mm 5 m/S 758 mmHg 82%
    20:00 +25°C° 0 mm 5 m/S 758 mmHg 83%
    21:00 +25°C° 0 mm 4 m/S 758 mmHg 83%
    22:00 +25°C° 0 mm 4 m/S 758 mmHg 84%
    23:00 +25°C° 0 mm 4 m/S 758 mmHg 84%

    24 März, Sonntag

    Zeit Temperatur Niederschläge Wind Luftdruck Luftfeuchtigkeit
    00:00 +25°C° 0 mm 4 m/S 757 mmHg 85%
    01:00 +25°C° 0 mm 4 m/S 757 mmHg 85%
    02:00 +23°C° 0 mm 4 m/S 756 mmHg 82%
    03:00 +23°C° 0 mm 4 m/S 756 mmHg 80%
    04:00 +23°C° 0 mm 4 m/S 756 mmHg 78%
    05:00 +24°C° 0.2 mm 3 m/S 757 mmHg 77%
    06:00 +25°C° 0.2 mm 2 m/S 757 mmHg 76%
    07:00 +25°C° 0.2 mm 1 m/S 758 mmHg 76%
    08:00 +26°C° 0.7 mm 1 m/S 758 mmHg 70%
    09:00 +28°C° 0.7 mm 1 m/S 758 mmHg 65%
    10:00 +30°C° 0.7 mm 1 m/S 758 mmHg 59%
    11:00 +30°C° 0 mm 1 m/S 757 mmHg 56%
    12:00 +31°C° 0 mm 2 m/S 757 mmHg 52%
    13:00 +32°C° 0 mm 2 m/S 756 mmHg 48%
    14:00 +34°C° 0 mm 3 m/S 756 mmHg 44%
    15:00 +35°C° 0 mm 3 m/S 756 mmHg 41%
    16:00 +36°C° 0 mm 3 m/S 756 mmHg 37%
    17:00 +34°C° 0 mm 3 m/S 756 mmHg 43%
    18:00 +32°C° 0 mm 4 m/S 757 mmHg 49%
    19:00 +29°C° 0 mm 4 m/S 757 mmHg 54%
    20:00 +28°C° 0 mm 4 m/S 757 mmHg 60%
    21:00 +27°C° 0 mm 4 m/S 758 mmHg 66%
    22:00 +26°C° 0 mm 4 m/S 758 mmHg 71%
    23:00 +26°C° 0 mm 3 m/S 757 mmHg 72%
    Mehr zeigen